Location: Gro� Glienicke
(52.4675°N, 13.1079°E)
Time: 08:07:33
(UTC+00:00)

Gbstr 26 Del rocket - Pass Details

Date: 06 July 2020
Orbit: 492 x 1264 km, 51.8° (Epoch: 05 August)

Event Time Altitude Azimuth Distance (km) Brightness Sun altitude
Exits shadow 22:44:17 25° 148° (SSE) 1,089 3.8 -14.7°
Maximum altitude 22:44:27 25° 143° (SE) 1,090 3.8 -14.7°
Drops below altitude 10° 22:47:51 10° 88° (E) 1,860 5.5 -14.8°
Sets 22:50:32 0° 75° (ENE) 2,866 6.6 -14.8°
